Probability
0 0 0 0 0 0 0 0 0 0 1 2 2 1 0 0 0 1 1 1 0 0 0 0 0 0 0 0 0 0 0 0 0 0 0 0 0 0 0 0 0 0 0
0 0 0 0 0 0 0 0 0 0 0 1 1 0 0 0 0 1 2 1 0 0 0 0 0 0 0 0 0 0 0 0 0 0 0 0 0 0 0 0 0 0 0
0 0 0 0 0 0 0 0 0 0 0 0 0 0 0 0 0 1 1 1 0 0 0 0 0 0 0 0 0 0 0 0 0 0 0 0 0 0 0 0 0 0 0
0 0 0 0 0 0 0 0 0 0 0 0 0 0 0 0 0 0 0 0 0 0 0 0 0 0 0 0 0 0 0 0 0 0 0 0 0 0 0 0 0 0 0
0 0 0 0 0 0 0 0 0 0 0 0 0 0 0 0 0 0 0 0 0 0 0 0 0 0 0 0 0 0 0 0 0 0 0 0 0 0 0 0 0 0 0
0 0 0 0 0 0 0 0 0 0 0 0 0 0 0 0 0 0 0 0 0 0 0 0 0 0 0 0 0 0 0 0 0 0 0 0 0 0 0 0 0 0 0
0 0 0 0 0 0 0 0 0 0 0 0 0 0 0 0 0 0 0 0 0 0 0 0 0 0 0 0 0 0 0 0 0 0 0 0 0 0 0 0 0 0 0
0 0 0 0 0 0 0 0 0 0 0 0 0 0 0 0 0 0 0 0 0 0 0 0 0 0 0 0 0 0 0 0 0 0 0 0 0 0 0 0 0 0 0
0 0 0 0 0 0 0 0 0 0 0 0 0 0 0 0 0 0 0 0 0 0 0 0 0 0 0 0 0 0 0 0 0 0 0 0 0 0 0 0 0 0 0
0 0 0 0 0 0 0 0 0 0 0 0 0 0 0 0 0 0 0 0 0 0 0 0 0 0 0 0 0 0 0 0 0 0 0 0 0 0 0 0 0 0 0
0 0 0 0 0 0 0 0 0 0 0 0 0 0 0 0 0 0 0 0 0 0 0 0 0 0 0 0 0 0 0 0 0 0 0 0 0 0 0 0 0 0 0
0 0 0 0 0 0 0 0 0 0 0 0 0 0 0 0 0 0 0 0 0 0 0 0 0 0 0 0 0 0 0 0 0 0 0 0 0 0 0 0 0 0 0
0 0 0 0 0 0 0 0 0 0 0 0 0 0 0 0 0 0 0 0 0 0 0 0 0 0 0 0 0 0 0 0 0 0 0 0 0 0 0 0 0 0 0
0 0 0 0 0 0 0 0 0 0 0 0 0 0 0 0 0 0 0 0 0 0 0 0 0 0 0 0 0 0 0 0 0 0 0 0 0 0 0 0 0 0 0
0 0 0 0 0 0 0 0 0 0 0 0 0 0 0 0 0 0 0 0 0 0 0 0 0 0 0 0 0 0 0 0 0 0 0 0 0 0 0 0 0 0 0
0 0 0 0 0 0 0 0 0 0 0 0 0 0 0 0 0 0 0 0 0 0 0 0 0 0 0 0 0 0 0 0 0 0 0 0 0 0 0 0 0 0 0
0 0 0 0 0 0 0 0 0 0 0 0 0 0 0 0 0 0 0 0 0 0 0 0 0 0 0 0 0 0 0 0 0 0 0 0 0 0 0 0 0 0 0
0 0 0 0 0 0 0 0 0 0 0 0 0 0 0 0 0 0 0 0 0 0 0 0 0 0 0 0 0 0 0 0 0 0 0 0 0 0 0 0 0 0 0
0 0 0 0 0 0 0 0 0 0 0 0 0 0 0 0 0 0 0 0 0 0 0 0 0 0 0 0 0 0 0 0 0 0 0 0 0 0 0 0 0 0 0
0 0 0 0 0 0 0 0 0 0 0 0 0 0 0 0 0 0 0 0 0 0 0 0 0 0 0 0 0 0 0 0 0 0 0 0 0 0 0 0 0 0 0
0 0 0 0 0 0 0 0 0 0 0 0 0 0 0 0 0 0 0 0 0 0 0 0 0 0 0 0 0 0 0 0 0 0 0 0 0 0 0 0 0 0 0
0 0 0 0 0 0 0 0 0 0 0 0 0 0 0 0 0 0 0 0 0 0 0 0 0 0 0 0 0 0 0 0 0 0 0 0 0 0 0 0 0 0 0
0 0 0 0 0 0 0 0 0 0 0 0 0 0 0 0 0 0 0 0 0 0 0 0 0 0 0 0 0 0 0 0 0 0 0 0 0 0 0 0 0 0 0
0 0 0 0 0 0 0 0 0 0 0 0 0 0 0 0 0 0 0 0 0 0 0 0 0 0 0 0 0 0 0 0 0 0 0 0 0 0 0 0 0 0 0
0 0 0 0 0 0 0 0 0 0 0 0 0 0 0 0 0 0 0 0 0 0 0 0 0 0 0 0 0 0 0 0 0 0 0 0 0 0 0 0 0 0 0
0 0 0 0 0 0 0 0 0 0 0 0 0 0 0 0 0 0 0 0 0 0 0 0 0 0 0 0 0 0 0 0 0 0 0 0 0 0 0 0 0 0 0
Wind_Speed
6 5 4 4 3 3 3 3 3 3 3 3 3 3 3 3 3 2 2 2 2 2 2 2 3 3 3 2 3 3 3 3 5 2 1 1 1 1 1 1 1 1 1
6 6 5 5 5 4 4 4 4 3 3 3 3 4 3 3 3 2 2 2 2 2 3 3 3 2 3 2 2 2 2 2 3 3 1 1 1 2 1 1 1 2 2
5 5 5 5 5 5 5 5 5 4 4 4 4 4 4 4 3 3 3 3 3 3 3 3 3 3 2 2 2 2 2 1 1 2 1 1 1 1 1 2 2 2 2
5 4 4 5 5 4 4 5 5 4 4 4 4 4 4 4 3 3 3 3 3 3 2 2 3 3 3 2 2 2 1 1 1 1 1 1 1 1 1 1 2 2 3
5 5 4 4 4 4 4 4 4 4 4 4 4 4 3 3 2 3 3 3 3 3 3 2 2 2 2 2 1 2 2 1 1 1 1 1 1 1 1 1 2 3 3
5 5 5 4 5 5 4 4 4 4 4 4 4 4 4 3 4 4 3 2 2 2 3 3 2 2 2 2 1 1 2 3 3 3 2 3 3 2 2 2 2 2 3
4 5 4 4 5 5 5 4 4 4 5 5 4 4 4 5 6 5 4 2 2 2 2 2 2 2 2 2 1 2 2 1 2 3 3 4 3 2 2 2 2 3 3
4 5 5 4 5 5 4 4 4 4 4 4 4 4 4 5 6 5 4 2 1 2 2 2 2 2 1 1 1 2 2 2 1 1 2 2 2 2 2 3 3 2 2
4 5 5 5 5 5 5 5 4 4 4 4 4 4 4 5 5 5 4 1 1 2 2 2 2 2 1 1 0 1 1 2 2 2 1 1 1 1 0 0 0 0 2
5 5 5 4 4 5 5 5 4 4 4 4 4 4 4 5 5 6 5 1 1 2 1 2 2 3 3 2 1 1 1 2 1 2 2 3 2 2 2 1 2 2 1
5 5 5 5 5 5 5 4 4 4 4 4 4 5 4 5 5 6 5 2 2 2 2 2 2 3 3 3 2 2 2 1 1 0 1 1 2 2 2 2 1 1 1
5 5 5 5 4 4 4 4 4 3 4 4 4 4 3 3 4 4 5 5 4 2 3 2 2 3 3 3 1 0 0 1 0 0 0 1 1 1 2 2 3 3 2
5 5 5 5 4 4 4 4 3 3 3 3 3 4 4 3 3 5 5 5 5 3 2 3 3 2 2 1 1 1 2 1 0 0 1 1 1 1 1 2 2 2 3
5 5 5 5 5 4 3 3 3 3 3 3 4 4 4 4 3 3 2 2 2 2 1 1 1 1 0 2 2 1 1 0 0 0 1 1 1 1 1 1 1 2 2
5 5 5 4 4 4 4 3 4 4 5 5 4 4 4 5 6 7 5 2 2 1 0 0 0 0 0 1 1 1 1 1 1 1 1 1 1 1 1 1 1 1 1
5 4 4 4 3 3 4 5 6 7 9 10 9 7 6 7 9 8 7 6 4 3 1 1 1 1 1 1 1 0 0 0 1 1 0 0 0 0 1 1 1 1 1
5 5 4 4 4 3 3 4 5 6 7 8 8 8 8 8 8 7 6 5 3 3 2 2 2 2 2 2 1 1 1 0 0 0 0 0 0 0 0 0 1 1 1
4 4 4 3 3 4 4 4 4 4 5 5 6 7 8 7 7 6 4 1 1 1 1 2 2 2 2 2 2 1 1 0 0 0 0 0 0 0 0 0 0 1 1
4 3 3 3 3 3 4 4 4 4 4 5 4 5 5 6 6 5 1 1 1 1 1 1 2 2 2 2 2 2 2 2 1 1 1 1 1 0 0 1 1 1 1
4 5 4 3 3 3 3 3 4 4 4 4 4 4 3 3 2 2 1 1 1 1 2 2 2 2 2 2 2 2 2 2 2 1 1 1 1 1 1 1 1 1 1
4 4 5 4 3 3 3 4 4 4 4 4 5 5 7 3 3 2 2 2 2 2 2 2 2 2 2 2 2 2 3 2 2 2 2 1 1 1 1 1 1 1 1
3 4 4 4 4 4 4 4 4 4 5 5 5 5 7 3 3 3 3 3 2 2 2 2 2 2 3 3 3 3 3 3 3 2 2 2 1 1 1 1 0 1 1
3 4 4 4 4 4 4 4 4 4 4 4 4 4 3 3 3 3 3 3 2 2 2 2 3 2 2 3 3 4 4 4 4 4 3 2 2 2 1 1 1 1 1
3 4 4 4 4 4 4 4 4 4 4 4 4 4 4 4 4 4 3 2 2 2 2 2 3 4 4 3 3 3 3 3 3 3 4 4 3 2 2 1 1 2 2
3 4 4 4 4 4 4 4 4 4 4 4 4 4 4 4 4 4 3 2 2 2 3 3 2 3 5 5 4 3 4 5 4 4 4 3 3 3 2 2 2 2 1
4 4 4 4 4 4 4 4 4 4 4 4 4 4 4 4 4 4 3 2 2 2 2 2 3 4 4 4 4 5 5 5 5 5 4 4 4 3 3 2 2 2 1
Wind_Direction
8 5 8 7 8 9 8 359 349 345 346 337 327 324 323 327 332 321 302 293 270 275 273 266 272 266 260 257 248 241 239 236 249 258 248 295 247 265 308 299 294 293 293
6 7 7 6 9 11 4 354 351 347 345 341 341 333 327 327 325 319 309 296 280 274 278 273 275 279 268 265 262 263 259 252 238 248 255 244 264 250 267 278 306 316 306
8 10 9 8 7 4 357 353 352 352 353 353 350 345 336 331 326 318 310 308 297 285 278 272 272 261 265 271 271 263 267 281 252 223 252 278 266 270 284 301 302 303 312
4 8 7 2 354 352 351 352 350 349 351 350 347 347 348 346 341 337 334 324 318 307 291 276 275 267 258 253 252 251 251 253 257 240 260 272 261 300 311 293 303 309 312
356 358 356 353 351 349 349 349 346 345 343 342 342 342 342 338 339 344 341 325 324 321 317 317 317 306 291 275 255 252 238 228 227 235 250 247 242 233 242 253 274 304 305
347 343 343 347 349 346 343 344 345 343 340 338 333 329 325 323 331 339 344 331 335 330 325 333 338 343 359 359 328 274 238 222 224 234 243 240 246 247 248 239 257 294 284
335 333 335 337 337 335 333 338 338 334 333 330 325 324 317 314 322 332 342 331 325 316 312 322 329 339 344 339 351 348 331 283 231 231 234 244 242 245 241 247 255 265 271
325 323 324 327 325 325 325 324 325 324 318 313 311 310 308 305 313 323 334 337 323 314 309 304 300 311 329 335 2 15 359 353 346 293 244 254 251 255 245 250 248 278 304
314 314 316 315 313 315 314 314 317 314 308 307 303 301 299 298 302 311 324 317 312 309 310 299 282 285 280 306 12 356 347 354 31 55 37 3 3 352 327 101 183 280 297
305 306 308 306 302 301 300 304 308 304 299 302 301 297 289 286 290 299 309 286 278 294 306 300 283 282 280 283 263 238 260 298 0 17 16 11 9 20 22 267 217 211 268
305 306 304 301 296 292 292 295 298 297 299 300 300 300 295 289 284 290 295 289 259 261 264 274 278 279 285 289 289 276 244 271 289 318 357 4 13 12 5 359 345 251 226
309 305 301 300 297 296 293 295 296 294 296 297 299 301 301 301 294 287 290 287 281 261 258 263 262 266 286 299 310 258 66 32 5 27 7 335 347 356 8 12 13 16 3
308 300 300 301 298 295 290 293 297 290 283 286 288 290 297 301 295 296 290 285 278 280 264 255 260 264 293 319 77 75 63 62 85 67 268 284 325 339 15 22 22 24 22
301 300 301 299 300 301 294 286 281 278 277 277 278 283 289 292 290 289 287 282 273 281 285 268 244 231 53 48 53 53 38 21 96 177 301 335 14 23 19 17 352 352 5
298 296 298 296 296 299 296 287 286 270 264 268 264 264 272 276 276 285 293 278 260 239 148 72 62 92 102 44 32 30 31 41 43 47 51 354 343 9 7 16 354 354 358
298 298 296 297 297 297 300 303 298 297 293 287 283 280 275 275 282 281 284 280 266 227 156 184 208 202 201 202 195 278 352 37 39 10 321 288 310 323 351 357 12 28 347
288 292 293 293 295 296 298 301 308 311 305 301 297 296 293 291 289 287 287 274 245 192 173 195 211 211 208 204 204 215 246 279 279 205 226 273 284 296 359 351 3 6 338
290 285 283 286 290 291 289 288 288 295 304 305 306 304 304 302 296 295 293 270 215 185 191 198 210 210 205 204 204 203 198 181 193 207 198 232 244 213 206 299 290 288 299
295 293 289 288 286 284 285 287 286 285 287 295 308 311 313 309 303 300 284 186 198 220 225 217 210 206 205 204 200 194 192 198 202 201 206 208 203 184 222 252 274 280 287
294 294 296 290 289 288 287 286 287 286 287 288 290 297 304 299 289 284 268 234 217 229 224 219 217 203 198 198 194 189 193 200 195 196 206 215 217 206 210 244 252 262 280
299 300 297 291 285 283 283 280 281 281 281 283 284 286 292 288 271 261 252 243 235 231 223 220 216 203 197 193 192 196 200 206 201 198 203 211 207 219 236 238 262 270 282
294 294 292 287 287 286 284 282 280 280 280 283 289 293 292 295 276 262 253 249 243 231 213 206 212 210 203 200 198 199 203 203 201 196 198 201 207 213 218 217 252 280 266
294 294 293 290 287 287 287 283 281 280 280 282 288 292 291 283 276 264 253 249 241 231 214 204 208 214 209 205 206 204 205 208 203 194 191 196 201 208 211 213 220 238 258
292 291 292 293 291 288 288 287 284 284 285 287 287 286 285 285 283 278 268 260 249 235 219 212 214 216 215 214 210 209 213 206 190 190 191 191 197 204 208 209 220 227 242
289 289 289 288 288 289 290 289 289 289 289 289 289 289 290 289 287 283 274 269 260 247 235 225 216 212 214 216 217 216 211 204 196 188 186 187 188 192 197 207 216 221 236
286 286 286 287 285 284 284 286 287 288 287 287 286 285 285 285 283 283 276 268 265 261 252 237 224 220 218 217 214 211 207 202 196 192 184 179 179 186 187 201 209 217 222